Tracking 18795 objects as of 22-August-2017
HD Live streaming from Space Station
objects crossing your sky now

COSMOS 1922

Track COSMOS 1922 now!
COSMOS 1922 is classified as:


NORAD ID: 18881
Int'l Code: 1988-013A
Perigee: 5,559.9 km
Apogee: 34,826.3 km
Inclination: 68.8 °
Period: 718.1 minutes
Semi major axis: 26564 km
RCS: 12.0457 m2 (large)
Launch date: February 26, 1988
Source: Commonwealth of Independent States (former USSR) (CIS)
Launch site: PLESETSK MISSILE AND SPACE COMPLEX (PKMTR)
Your satellite tracking list
Your tracking list is empty





NASA's NSSDC Master Catalog

Two Line Element Set (TLE):
1 18881U 88013A   17233.26696402 -.00000601 +00000-0 +00000-0 0  9995
2 18881 068.8327 228.2945 5508646 128.0406 295.8129 02.00521334215913
Source of the keplerian elements: AFSPC